Omak, WA

1:17 PM PDT on April 21, 2018 (GMT -0700)
Omak

Weather History for KOMK - April, 2013

Change the Weather History Date:

Monday, April 29, 2013

  Actual Average Record
Temperature  
Mean Temperature 44 °F 53 °F  
Max Temperature 57 °F 67 °F 85 °F (1931)
Min Temperature 30 °F 39 °F 22 °F (1972)
Degree Days  
Heating Degree Days 21 12  
Month to date heating degree days 456 438  
Since 1 July heating degree days 5789 6028  
Cooling Degree Days 0 0  
Month to date cooling degree days 0 0  
Year to date cooling degree days 0 0  
Moisture  
Dew Point 22 °F    
Average Humidity 42    
Maximum Humidity 62    
Minimum Humidity 21    
Precipitation  
Precipitation 0.00 in 0.04 in 1.08 in (1948)
Month to date precipitation 0.96 1.01  
Year to date precipitation 2.52 5.50  
Sea Level Pressure  
Sea Level Pressure 29.84 in    
Wind  
Wind Speed 12 mph (NW)    
Max Wind Speed 32 mph    
Max Gust Speed 41 mph    
Visibility 10 miles    
Events      
T = Trace of Precipitation, MM = Missing Value Source: NWS Daily Summary

Daily Weather History Graph

Daily Weather History Graph

Search for Another Location

Airport or City:

Astronomy

Apr. 29, 2013 Rise Set
Actual Time 5:41 AM PDT 8:10 PM PDT
Civil Twilight 5:06 AM PDT 8:45 PM PDT
Nautical Twilight 4:22 AM PDT 9:29 PM PDT
Astronomical Twilight 3:32 AM PDT 10:20 PM PDT
Moon No Moon Rise 8:59 AM PDT (4/29)
Length of Visible Light 15h 38m
Length of Day
14h 28m
Waning Gibbous, 79% of the Moon is Illuminated
Apr 29
Waning Gibbous
May 2
Last Quarter
May 9
New
May 17
First Quarter
May 24
Full

Hourly Weather History & Observations

Time (PDT) Temp. Windchill Dew Point Humidity Pressure Visibility Wind Dir Wind Speed Gust Speed Precip Events Conditions
12:53 AM 46.0 °F 41.4 °F 30.0 °F 54% 29.77 in 10.0 mi South 9.2 mph - N/A   Clear
1:53 AM 45.0 °F 40.1 °F 30.0 °F 56% 29.74 in 10.0 mi SSE 9.2 mph - N/A   Clear
2:53 AM 44.1 °F 38.1 °F 30.0 °F 58% 29.70 in 10.0 mi SSE 11.5 mph - N/A   Clear
3:53 AM 44.1 °F 39.0 °F 30.0 °F 58% 29.68 in 10.0 mi SSE 9.2 mph - N/A   Clear
4:53 AM 42.1 °F - 30.0 °F 62% 29.69 in 10.0 mi Calm Calm - N/A   Clear
5:53 AM 44.1 °F 42.5 °F 27.0 °F 51% 29.72 in 10.0 mi WSW 3.5 mph - N/A   Clear
6:53 AM 48.9 °F - 24.1 °F 38% 29.74 in 10.0 mi West 9.2 mph - N/A   Clear
7:53 AM 51.1 °F - 21.9 °F 32% 29.76 in 10.0 mi West 11.5 mph - N/A   Clear
8:53 AM 53.1 °F - 19.9 °F 27% 29.78 in 10.0 mi West 16.1 mph 23.0 mph N/A   Clear
9:53 AM 55.0 °F - 19.0 °F 24% 29.80 in 10.0 mi NW 17.3 mph 27.6 mph N/A   Clear
10:40 AM 51.8 °F - 26.6 °F 38% 29.83 in 10.0 mi North 25.3 mph 36.8 mph N/A   Clear
10:53 AM 48.9 °F - 25.0 °F 39% 29.85 in 10.0 mi NNE 27.6 mph 40.3 mph N/A   Clear
11:53 AM 50.0 °F - 24.1 °F 36% 29.88 in 10.0 mi NNE 25.3 mph 36.8 mph N/A   Overcast
12:53 PM 54.0 °F - 19.9 °F 26% 29.88 in 10.0 mi NNE 20.7 mph 28.8 mph N/A   Mostly Cloudy
1:53 PM 55.0 °F - 23.0 °F 29% 29.88 in 10.0 mi NE 18.4 mph 28.8 mph N/A   Overcast
2:53 PM 54.0 °F - 23.0 °F 30% 29.89 in 10.0 mi NNE 15.0 mph 21.9 mph N/A   Overcast
3:53 PM 52.0 °F - 21.0 °F 30% 29.90 in 10.0 mi North 8.1 mph 18.4 mph N/A   Mostly Cloudy
4:53 PM 57.0 °F - 23.0 °F 27% 29.90 in 10.0 mi Variable 6.9 mph 18.4 mph N/A   Overcast
5:53 PM 55.9 °F - 24.1 °F 29% 29.91 in 10.0 mi NNW 13.8 mph 18.4 mph N/A   Overcast
6:53 PM 50.0 °F - 12.9 °F 23% 29.92 in 10.0 mi WNW 15.0 mph 23.0 mph N/A   Mostly Cloudy
7:53 PM 46.9 °F - 10.9 °F 23% 29.94 in 10.0 mi WNW 16.1 mph 21.9 mph N/A   Clear
8:53 PM 42.1 °F 37.1 °F 15.1 °F 34% 29.96 in 10.0 mi NW 8.1 mph - N/A   Clear
9:53 PM 41.0 °F - 14.0 °F 33% 29.97 in 10.0 mi Calm Calm - N/A   Clear
10:53 PM 36.0 °F 29.0 °F 17.1 °F 46% 30.00 in 10.0 mi WNW 9.2 mph - N/A   Clear
11:53 PM 36.0 °F 30.3 °F 16.0 °F 44% 30.01 in 10.0 mi West 6.9 mph - N/A   Clear